Location: Hradec Kralove
(50.2170°N, 15.8330°E)
Time: 16:26:48
(UTC+01:00)

Explorer 11/Cluster Stage 4 - All Passes

Search period start: 27 January 2023 00:00
Search period end: 06 February 2023 00:00
Orbit: 466 x 1244 km, 28.8° (Epoch: 26 January)

Date Brightness Start Highest point End Pass type
(mag) Time Alt. Az. Time Alt. Az. Time Alt. Az.
28 Jan - 09:03:55 10° SSW 09:05:25 11° S 09:06:50 10° SSE daylight
29 Jan - 08:49:38 10° SSW 08:51:56 12° S 08:54:08 10° SSE daylight
30 Jan - 06:50:24 10° S 06:51:03 10° SSE 06:51:43 10° SSE visible
30 Jan - 08:35:36 10° SSW 08:38:26 12° S 08:41:08 10° SSE daylight
31 Jan - 06:35:22 10° S 06:37:29 11° SSE 06:39:35 10° SSE visible
31 Jan - 08:21:41 10° SSW 08:24:53 13° S 08:27:57 10° SSE daylight
01 Feb - 06:21:05 10° S 06:23:53 12° S 06:26:39 10° SSE visible
01 Feb - 08:07:51 10° SSW 08:11:18 13° S 08:14:38 10° SSE daylight
02 Feb - 06:07:01 10° SSW 06:10:16 13° S 06:13:29 10° SE visible
02 Feb - 07:54:06 10° SSW 07:57:42 14° S 08:01:12 10° SSE daylight
03 Feb - 05:53:06 10° SSW 05:56:37 13° S 06:00:08 10° SE visible
03 Feb - 07:40:23 10° SW 07:44:05 14° S 07:47:40 10° SSE daylight
04 Feb - 05:39:17 10° SSW 05:42:58 14° S 05:46:41 10° SE visible
04 Feb - 07:26:46 10° SW 07:30:25 14° S 07:34:01 10° SSE daylight
05 Feb - 05:25:32 10° SSW 05:29:18 14° S 05:33:06 10° SE visible
05 Feb - 07:13:14 10° SW 07:16:45 13° S 07:20:14 10° SSE daylight
